| time (UTC) | temp C | wind direction | speed KPH | gust KPH | rain 1hr cm | rain 24hr cm | rain mn cm | humidity % | barometer mb |
| 20260507053507 | 12 | 261 | 6.4 | 8.0 | 0.00 | 0.00 | 0.00 | 27 | 1013.6 |
| 20260507052520 | 12 | 252 | 4.8 | 9.7 | 0.00 | 0.00 | 0.00 | 27 | 1013.6 |
| 20260507051448 | 12 | 249 | 6.4 | 12.9 | 0.00 | 0.00 | 0.00 | 27 | 1013.6 |
| 20260507050457 | 12 | 241 | 8.0 | 12.9 | 0.00 | 0.00 | 0.00 | 26 | 1013.5 |
| 20260507045516 | 12 | 259 | 8.0 | 11.3 | 0.00 | 0.00 | 0.00 | 27 | 1013.4 |
| 20260507044522 | 12 | 232 | 6.4 | 9.7 | 0.00 | 0.00 | 0.00 | 27 | 1013.4 |
| 20260507043514 | 12 | 229 | 6.4 | 8.0 | 0.00 | 0.00 | 0.00 | 27 | 1013.4 |
| 20260507042506 | 12 | 233 | 4.8 | 8.0 | 0.00 | 0.00 | 0.00 | 27 | 1013.3 |
| 20260507041521 | 12 | 221 | 3.2 | 6.4 | 0.00 | 0.00 | 0.00 | 26 | 1013.3 |
| 20260507040502 | 12 | 238 | 4.8 | 8.0 | 0.00 | 0.00 | 0.00 | 26 | 1013.2 |
| 20260507035454 | 13 | 230 | 6.4 | 11.3 | 0.00 | 0.00 | 0.00 | 26 | 1013.0 |
| 20260507034438 | 12 | 211 | 6.4 | 11.3 | 0.00 | 0.00 | 0.00 | 26 | 1012.8 |
| 20260507033501 | 13 | 226 | 6.4 | 9.7 | 0.00 | 0.00 | 0.00 | 25 | 1012.7 |
| 20260507032444 | 13 | 210 | 6.4 | 9.7 | 0.00 | 0.00 | 0.00 | 25 | 1012.6 |
| 20260507031411 | 13 | 223 | 6.4 | 9.7 | 0.00 | 0.00 | 0.00 | 25 | 1012.4 |
| 20260507030351 | 13 | 221 | 4.8 | 9.7 | 0.00 | 0.00 | 0.00 | 24 | 1012.2 |
| 20260507024217 | 13 | 214 | 6.4 | 14.5 | 0.00 | 0.00 | 0.00 | 23 | 1011.8 |
| 20260507023228 | 14 | 211 | 6.4 | 14.5 | 0.00 | 0.00 | 0.00 | 22 | 1011.7 |
| 20260507022206 | 14 | 182 | 9.7 | 19.3 | 0.00 | 0.00 | 0.00 | 22 | 1011.5 |
| 20260507021144 | 15 | 217 | 9.7 | 19.3 | 0.00 | 0.00 | 0.00 | 21 | 1011.3 |
| 20260507020138 | 15 | 213 | 9.7 | 20.9 | 0.00 | 0.00 | 0.00 | 20 | 1011.3 |
| 20260507015113 | 15 | 146 | 11.3 | 20.9 | 0.00 | 0.00 | 0.00 | 19 | 1011.2 |
| 20260507014048 | 16 | 179 | 12.9 | 22.5 | 0.00 | 0.00 | 0.00 | 19 | 1011.0 |
| 20260507013046 | 16 | 176 | 14.5 | 27.4 | 0.00 | 0.00 | 0.00 | 18 | 1010.9 |
| 20260507012041 | 17 | 195 | 14.5 | 27.4 | 0.00 | 0.00 | 0.00 | 18 | 1010.7 |
| 20260507005948 | 17 | 177 | 12.9 | 24.1 | 0.00 | 0.00 | 0.00 | 17 | 1010.6 |
| 20260507004930 | 18 | 140 | 11.3 | 27.4 | 0.00 | 0.00 | 0.00 | 17 | 1010.5 |
| 20260507003951 | 18 | 160 | 14.5 | 27.4 | 0.00 | 0.00 | 0.00 | 18 | 1010.4 |
| 20260507002939 | 18 | 163 | 14.5 | 27.4 | 0.00 | 0.00 | 0.00 | 19 | 1010.2 |
| 20260507001916 | 18 | 163 | 14.5 | 27.4 | 0.00 | 0.00 | 0.00 | 18 | 1010.2 |
| 20260507000903 | 18 | 148 | 14.5 | 27.4 | 0.00 | 0.00 | 0.00 | 18 | 1010.0 |
| 20260506235902 | 18 | 156 | 12.9 | 30.6 | 0.00 | 0.00 | 0.00 | 18 | 1010.0 |
| 20260506234902 | 18 | 142 | 14.5 | 30.6 | 0.00 | 0.00 | 0.00 | 18 | 1010.0 |
| 20260506232810 | 18 | 182 | 14.5 | 30.6 | 0.00 | 0.00 | 0.00 | 17 | 1009.9 |
| 20260506231811 | 18 | 192 | 17.7 | 27.4 | 0.00 | 0.00 | 0.00 | 18 | 1009.8 |
| 20260506230740 | 18 | 150 | 16.1 | 32.2 | 0.00 | 0.00 | 0.00 | 17 | 1009.8 |
| 20260506225707 | 19 | 180 | 14.5 | 32.2 | 0.00 | 0.00 | 0.00 | 17 | 1009.9 |
| 20260506224647 | 19 | 234 | 14.5 | 29.0 | 0.00 | 0.00 | 0.00 | 17 | 1009.9 |
| 20260506223652 | 20 | 174 | 14.5 | 37.0 | 0.00 | 0.00 | 0.00 | 17 | 1010.0 |
| 20260506222649 | 18 | 237 | 20.9 | 37.0 | 0.00 | 0.00 | 0.00 | 17 | 1010.0 |
| 20260506220457 | 18 | 156 | 17.7 | 33.8 | 0.00 | 0.00 | 0.00 | 16 | 1010.1 |
| 20260506215445 | 18 | 169 | 19.3 | 33.8 | 0.00 | 0.00 | 0.00 | 17 | 1010.1 |
| 20260506214458 | 19 | 194 | 12.9 | 29.0 | 0.00 | 0.00 | 0.00 | 17 | 1010.1 |
| 20260506213518 | 18 | 195 | 14.5 | 29.0 | 0.00 | 0.00 | 0.00 | 17 | 1010.3 |
| 20260506212540 | 18 | 180 | 14.5 | 29.0 | 0.00 | 0.00 | 0.00 | 20 | 1010.3 |
| 20260506210349 | 18 | 159 | 12.9 | 33.8 | 0.00 | 0.00 | 0.00 | 20 | 1010.9 |
| 20260506204309 | 18 | 164 | 14.5 | 29.0 | 0.00 | 0.00 | 0.00 | 22 | 1010.8 |
| 20260506203311 | 18 | 203 | 16.1 | 29.0 | 0.00 | 0.00 | 0.00 | 22 | 1010.9 |
| 20260506202247 | 18 | 178 | 14.5 | 35.4 | 0.00 | 0.00 | 0.00 | 23 | 1011.0 |
| 20260506201308 | 18 | 127 | 16.1 | 35.4 | 0.00 | 0.00 | 0.00 | 23 | 1010.9 |
| 20260506195152 | 17 | 148 | 16.1 | 33.8 | 0.00 | 0.00 | 0.00 | 24 | 1011.0 |
| 20260506194121 | 17 | 173 | 14.5 | 33.8 | 0.00 | 0.00 | 0.00 | 24 | 1011.0 |
| 20260506192030 | 17 | 4 | 14.5 | 29.0 | 0.00 | 0.00 | 0.00 | 26 | 1011.2 |
| 20260506184838 | 17 | 225 | 12.9 | 25.7 | 0.00 | 0.00 | 0.00 | 29 | 1011.4 |
| 20260506183829 | 16 | 238 | 11.3 | 27.4 | 0.00 | 0.00 | 0.00 | 29 | 1011.4 |
| 20260506182828 | 16 | 164 | 12.9 | 27.4 | 0.00 | 0.00 | 0.00 | 32 | 1011.6 |
| 20260506181844 | 15 | 150 | 11.3 | 22.5 | 0.00 | 0.00 | 0.00 | 30 | 1011.8 |
| 20260506180838 | 15 | 163 | 12.9 | 27.4 | 0.00 | 0.00 | 0.00 | 30 | 1012.0 |
| 20260506175825 | 15 | 165 | 14.5 | 27.4 | 0.00 | 0.00 | 0.00 | 31 | 1012.1 |
| 20260506173717 | 15 | 213 | 12.9 | 24.1 | 0.00 | 0.00 | 0.00 | 29 | 1012.2 |
| 20260506172702 | 13 | 227 | 12.9 | 24.1 | 0.00 | 0.00 | 0.00 | 29 | 1012.2 |
| 20260506171715 | 13 | 183 | 12.9 | 24.1 | 0.00 | 0.00 | 0.00 | 33 | 1012.1 |
| 20260506170731 | 13 | 200 | 11.3 | 22.5 | 0.00 | 0.00 | 0.00 | 32 | 1012.0 |
| 20260506165700 | 13 | 238 | 12.9 | 29.0 | 0.00 | 0.00 | 0.00 | 35 | 1012.0 |
| 20260506164717 | 13 | 254 | 12.9 | 29.0 | 0.00 | 0.00 | 0.00 | 35 | 1012.0 |
| 20260506162624 | 12 | 194 | 12.9 | 24.1 | 0.00 | 0.00 | 0.00 | 40 | 1011.8 |
| 20260506161610 | 12 | 213 | 9.7 | 25.7 | 0.00 | 0.00 | 0.00 | 41 | 1011.8 |
| 20260506160606 | 11 | 168 | 16.1 | 29.0 | 0.00 | 0.00 | 0.00 | 42 | 1011.7 |
| 20260506155554 | 11 | 213 | 17.7 | 30.6 | 0.00 | 0.00 | 0.00 | 44 | 1011.6 |
| 20260506154540 | 11 | 233 | 14.5 | 30.6 | 0.00 | 0.00 | 0.00 | 43 | 1011.6 |
| 20260506153539 | 11 | 225 | 14.5 | 29.0 | 0.00 | 0.00 | 0.00 | 44 | 1011.7 |
| 20260506152542 | 11 | 177 | 14.5 | 32.2 | 0.00 | 0.00 | 0.00 | 45 | 1011.5 |
| 20260506151511 | 11 | 192 | 14.5 | 29.0 | 0.00 | 0.03 | 0.00 | 45 | 1011.5 |
| 20260506150437 | 10 | 202 | 14.5 | 27.4 | 0.00 | 0.03 | 0.00 | 48 | 1011.5 |
| 20260506145445 | 10 | 223 | 16.1 | 29.0 | 0.00 | 0.03 | 0.00 | 49 | 1011.4 |
| 20260506144429 | 10 | 160 | 16.1 | 32.2 | 0.00 | 0.03 | 0.00 | 49 | 1011.3 |
| 20260506143433 | 10 | 233 | 17.7 | 32.2 | 0.00 | 0.03 | 0.00 | 52 | 1011.4 |
| 20260506142410 | 9 | 163 | 16.1 | 30.6 | 0.00 | 0.03 | 0.00 | 53 | 1011.3 |
| 20260506141340 | 9 | 222 | 14.5 | 30.6 | 0.00 | 0.03 | 0.00 | 55 | 1011.1 |
| 20260506140330 | 9 | 225 | 17.7 | 27.4 | 0.00 | 0.03 | 0.00 | 57 | 1011.2 |
| 20260506135346 | 8 | 237 | 14.5 | 27.4 | 0.00 | 0.03 | 0.00 | 58 | 1011.1 |
| 20260506134350 | 8 | 248 | 11.3 | 27.4 | 0.00 | 0.03 | 0.00 | 59 | 1011.1 |
| 20260506131042 | 7 | 199 | 8.0 | 16.1 | 0.00 | 0.03 | 0.00 | 67 | 1011.0 |
| 20260506130017 | 6 | 213 | 6.4 | 14.5 | 0.00 | 0.03 | 0.00 | 68 | 1010.9 |
| 20260506125025 | 6 | 4 | 6.4 | 17.7 | 0.00 | 0.03 | 0.00 | 68 | 1010.7 |
| 20260506124018 | 6 | 240 | 9.7 | 17.7 | 0.00 | 0.03 | 0.00 | 68 | 1010.6 |
| 20260506123026 | 6 | 246 | 8.0 | 16.1 | 0.00 | 0.05 | 0.00 | 69 | 1010.4 |
| 20260506122034 | 6 | 239 | 9.7 | 20.9 | 0.00 | 0.05 | 0.00 | 68 | 1010.3 |
| 20260506121041 | 6 | 229 | 8.0 | 20.9 | 0.00 | 0.05 | 0.00 | 69 | 1010.1 |
| 20260506120038 | 6 | 210 | 8.0 | 12.9 | 0.00 | 0.08 | 0.00 | 68 | 1010.0 |
| 20260506115025 | 7 | 230 | 9.7 | 22.5 | 0.00 | 0.08 | 0.00 | 67 | 1009.9 |
| 20260506112856 | 7 | 219 | 11.3 | 30.6 | 0.00 | 0.08 | 0.00 | 66 | 1009.7 |
| 20260506111832 | 7 | 233 | 14.5 | 30.6 | 0.00 | 0.08 | 0.00 | 66 | 1009.6 |
| 20260506110832 | 7 | 263 | 14.5 | 25.7 | 0.00 | 0.08 | 0.00 | 66 | 1009.5 |
| 20260506104648 | 7 | 218 | 14.5 | 27.4 | 0.00 | 0.08 | 0.00 | 65 | 1009.5 |
| 20260506103633 | 7 | 273 | 16.1 | 27.4 | 0.00 | 0.08 | 0.00 | 65 | 1009.4 |
| 20260506102611 | 7 | 222 | 16.1 | 25.7 | 0.00 | 0.08 | 0.00 | 65 | 1009.4 |
| 20260506101624 | 7 | 225 | 14.5 | 30.6 | 0.00 | 0.08 | 0.00 | 65 | 1009.2 |
| 20260506100649 | 7 | 216 | 16.1 | 30.6 | 0.00 | 0.08 | 0.00 | 64 | 1009.2 |
| 20260506095646 | 7 | 238 | 17.7 | 29.0 | 0.00 | 0.08 | 0.00 | 64 | 1009.2 |
| 20260506094613 | 8 | 186 | 14.5 | 25.7 | 0.00 | 0.08 | 0.00 | 64 | 1009.2 |
| 20260506093625 | 8 | 221 | 14.5 | 30.6 | 0.00 | 0.08 | 0.00 | 64 | 1009.1 |
| 20260506092641 | 8 | 215 | 16.1 | 30.6 | 0.00 | 0.08 | 0.00 | 63 | 1009.2 |
| 20260506091652 | 8 | 243 | 16.1 | 27.4 | 0.00 | 0.08 | 0.00 | 63 | 1009.1 |
| 20260506090640 | 8 | 242 | 14.5 | 25.7 | 0.00 | 0.08 | 0.00 | 63 | 1009.1 |
| 20260506085607 | 8 | 246 | 12.9 | 29.0 | 0.00 | 0.08 | 0.00 | 62 | 1009.0 |
| 20260506084604 | 8 | 231 | 12.9 | 29.0 | 0.00 | 0.08 | 0.00 | 61 | 1009.0 |
| 20260506083559 | 8 | 182 | 9.7 | 20.9 | 0.00 | 0.08 | 0.00 | 61 | 1009.1 |
| 20260506082530 | 8 | 237 | 11.3 | 24.1 | 0.00 | 0.08 | 0.00 | 62 | 1009.1 |
| 20260506081536 | 8 | 250 | 12.9 | 24.1 | 0.00 | 0.08 | 0.00 | 63 | 1009.1 |
| 20260506080534 | 8 | 4 | 9.7 | 19.3 | 0.00 | 0.08 | 0.00 | 63 | 1009.3 |
| 20260506073424 | 8 | 220 | 11.3 | 20.9 | 0.00 | 0.08 | 0.00 | 61 | 1009.4 |
| 20260506071218 | 8 | 215 | 11.3 | 22.5 | 0.00 | 0.08 | 0.00 | 60 | 1009.2 |
| 20260506070215 | 8 | 226 | 11.3 | 22.5 | 0.00 | 0.08 | 0.00 | 60 | 1009.2 |
| 20260506061018 | 10 | 246 | 12.9 | 24.1 | 0.00 | 0.08 | 0.00 | 57 | 1008.6 |